Preview of NWS' New Version of Forecast
This preview is not operational and should not be used for support decisions.
Latest weather observations around

Concord, Buchanan Field (KCCR)

Using International System of Units (Switch to English Units)
Date/ Time (PDT) Wind (kph) Vis. (km) Weather Sky Cond. Temp (°C) Rel. Humidity Wind Chill (°C) Heat Index (°C) Pressure Precip. (cm)
Air Dwpt 6 hour Altimeter (hPa) Sea level (hPa) 1 hr 3 hr 6 hr
Max Min
Apr 20 18:53 SW 21 16.09 Clear CLR 17 7     52%     1013.6        
Apr 20 17:53   16.09 Clear CLR 17 7     50%     1013.2        
Apr 20 16:53 W 24 16.09 Partly Cloudy SCT039 19 7     45%     1012.9        
Apr 20 15:53 SW 28 16.09 Clear CLR 20 7     43%     1012.9        
Apr 20 14:53 SW 26 16.09 Clear CLR 21 7     41%     1013.2        
Apr 20 13:53 WSW 26 16.09 Mostly Clear FEW043 21 7     41%     1013.6        
Apr 20 12:53 W 22 16.09 Partly Cloudy SCT030 20 7     42%     1013.2        
Apr 20 11:53 WSW 22 16.09 Clear CLR 20 9     49%     1013.6        
Apr 20 10:53 WSW 28 16.09 Partly Cloudy SCT030 19 9     52%     1012.9        
Apr 20 09:53 WSW 17 16.09 Partly Cloudy SCT022 SCT080 16 10     67%     1012.9        
Apr 20 08:53 SSW 18 16.09 Mostly Cloudy BKN019 15 10     72%     1012.5        
Apr 20 08:37 SSW 21 16.09 Mostly Cloudy BKN019 14 10     75%     1012.5        
Apr 20 08:16 SSW 15 16.09 Partly Cloudy SCT017 SCT120 14 10     75%     1012.2        
Apr 20 07:53 SSW 22 16.09 Mostly Cloudy BKN020 14 10     77%     1012.2        
Apr 20 06:53 S 22 16.09 Partly Cloudy SCT017 SCT110 13 9     77%     1011.9        
Apr 20 05:53 S 24 16.09 Clear CLR 13 9     77%     1010.8        
Apr 20 04:53 S 28 16.09 Clear CLR 13 9     77%     1010.8        
Apr 20 03:53 SSW 18 16.09 Clear CLR 13 9     77%     1010.8        
Apr 20 02:53   16.09 Clear CLR 13 9     77%     1010.5        
Apr 20 01:53 S 24 16.09 Clear CLR 13 9     77%     1011.2        
Apr 20 00:53 S 21 16.09 Clear CLR 13 9     77%     1011.5        
Apr 19 23:53 S 26 16.09 Clear CLR 13 9     77%     1011.5        
Apr 19 22:53 S 22 16.09 Clear CLR 14 9     74%     1011.2        
Apr 19 21:53 S 18 16.09 Clear CLR 15 9     69%     1011.2        
Apr 19 20:53 Calm 16.09 Clear CLR 16 10     67%     1010.8        
Apr 19 19:53 W 13 16.09 Clear CLR 19 9     54%     1010.2        
Apr 19 18:53 WSW 17 16.09 Clear CLR 22 11     51%   21 1009.8        
Apr 19 17:53 NW 18 16.09 Clear CLR 24 12     47%   24 1010.2        
Apr 19 16:53 WNW 22 16.09 Clear CLR 27 8     31%   26 1010.5        
Apr 19 15:53 W 24 16.09 Clear CLR 27 10     34%   27 1010.5        
Apr 19 14:53 NW 18 16.09 Clear CLR 27 12     39%   27 1011.5        
Apr 19 13:53 NW 21 16.09 Clear CLR 26 11     39%   26 1011.9        
Apr 19 12:53 NNW 18 16.09 Clear CLR 26 12     41%   26 1012.5        
Apr 19 11:53 NW 13 16.09 Clear CLR 25 12     43%   25 1013.6        
Apr 19 10:53 NNW 8 16.09 Clear CLR 22 12     55%   21 1013.9        
Apr 19 09:53 N 13 16.09 Clear CLR 20 12     61%     1014.2        
Apr 19 08:53 NNW 5 16.09 Mostly Cloudy BKN100 17 12     70%     1014.6        
Apr 19 07:53 Calm 16.09 Mostly Cloudy BKN100 15 11     78%     1014.9        
Apr 19 06:53 Calm 16.09 Clear CLR 13 10     83%     1014.6        
Apr 19 05:53 NNW 9 16.09 Clear CLR 13 10     83%     1014.6        
Apr 19 03:53 S 5 16.09 Clear CLR 16 10     67%     1015.2        
Apr 19 02:53 SSW 13 16.09 Clear CLR 16 11     70%     1015.6        
Apr 19 01:53 S 8 16.09 Clear CLR 16 11     75%     1016.6        
Apr 19 00:53   16.09 Clear CLR 17 11     67%     1016.9        
Apr 18 23:53   16.09 Clear CLR 17 11     67%     1016.9        
Apr 18 22:53   16.09 Clear CLR 19 11     59%     1016.9        
Apr 18 21:53   16.09 Clear CLR 20 11     55%     1017.3        
Apr 18 20:53 WNW 24 16.09 Clear CLR 21 12     59%     1016.6        
Apr 18 19:53 NNW 8 16.09 Clear CLR 22 13     57%   22 1015.9        
Apr 18 18:53 N 9 16.09 Clear CLR 26 13     45%   25 1015.9        
Apr 18 17:53 8 16.09 Clear CLR 28 12     38%   27 1016.3        
Apr 18 15:53 NNE 9 12.87 Clear CLR 27 12     38%   27 1017.6        
Apr 18 14:53 NNE 15 16.09 Clear CLR 27 11     38%   26 1018.6        
Apr 18 12:53 E 13 16.09 Clear CLR 26 12     42%   26 1019.7        
Apr 18 11:53   16.09 Clear CLR 23 12     50%   23 1020.7        
Apr 18 09:53 Calm 16.09 Clear CLR 19 9     52%     1021        
Apr 18 08:53 S 5 16.09 Clear CLR 16 9     62%     1021.3        
Apr 18 07:38 Calm 16.09 Clear CLR 13 9     77%     1021.3        
Apr 18 07:31 Calm 4.02 Haze CLR 13 9     77%     1021.3        
Apr 18 06:53 Calm 16.09 Clear CLR 11 7     79%     1021        
Apr 18 05:53 Calm 16.09 Clear CLR 11 7     79%     1020.7        
Apr 18 04:53 Calm 16.09 Clear CLR 11 8     80%     1020.7        
Apr 18 03:53 Calm 16.09 Clear CLR 11 8     83%     1020.7        
Apr 18 02:53 Calm 16.09 Clear CLR 13 9     77%     1021        
Apr 18 01:53 Calm 16.09 Clear CLR 13 8     74%     1021.3        
Apr 18 00:53 S 5 16.09 Clear CLR 14 8     65%     1021.3        
Apr 17 23:53 Calm 16.09 Clear CLR 15 8     64%     1021.7        
Apr 17 22:53 Calm 16.09 Clear CLR 16 8     60%     1021.7        
Apr 17 21:53 NNW 9 16.09 Clear CLR 16 9     64%     1021.7        
Apr 17 20:53   16.09 Clear CLR 18 8     54%     1021        
Apr 17 19:53 NNW 8 16.09 Clear CLR 19 10     56%     1020.3        
May 15 01:49 W 9 16.09 Mostly Cloudy BKN020 13 9     77%     1015.6        
May 14 19:53 SW 24 16.09 Clear CLR 15 9     67%     1014.6        
May 14 17:53 W 30 16.09 Clear CLR 18 9     56%     1013.9        
May 14 15:53   16.09 Clear CLR 19 9     52%     1014.6        
May 14 14:53 WSW 32 16.09 Mostly Clear and Windy FEW026 19 9     54%     1015.2        
May 14 04:53 WSW 17 16.09 Cloudy OVC016 13 8     74%     1015.6        
May 12 13:53   16.09 Clear   26 8     32%   26 1010.5        
May 11 18:53   16.09 Clear CLR 28 0     16%   27 1006.8        
Jun 12 06:53 SSW 13 16.09 Clear CLR 13 9     77%     1017.6        
Jun 11 17:53   16.09 Mostly Cloudy SCT046 BKN085 18 7     47%     1013.9        
Jun 11 16:53 W 28 16.09 Clear CLR 21 6     39%     1012.9        
Jun 10 19:53 WNW 26 16.09 Mostly Clear FEW037 18 8     54%     1013.2        
Jun 10 13:53 WNW 26 16.09 Partly Cloudy SCT040 23 6     34%   22 1013.9        
Jun 10 07:53   16.09 Clear CLR 16 7     55%     1014.2        
Jun 09 20:53 SW 18 16.09 Clear CLR 16 7     56%     1014.2        
Jun 09 09:06 W 17 16.09 Cloudy BKN019 OVC029 17 14     81%     1013.9        
Jun 09 04:53 SSW 5 16.09 Cloudy OVC029 17 14     84%     1013.9       0
Jun 09 01:53 WSW 13 16.09 Cloudy FEW011 OVC025 17 14     86%     1014.6     0  
Jun 08 20:53 WNW 8 16.09 Cloudy OVC035 18 15     84%     1015.2        
Jun 08 10:00 SSW 15 16.09 Cloudy OVC029 17 8     56%     1016.3        
Jun 07 06:53   16.09 Mostly Clear FEW012 13 11     84%     1012.2